Главная страница
METAR-TAF:

METAR-TAF

Аэропорты :

Сенендедж, Иран

широта: 35-20N, долгота: 047-00E, высота над уровнем моря: 1373 м

Текущие метеонаблюдения

Эта сводка был подготовлена 1 час и 3 минут назад, в 01:00 UTC
Штиль
Температура 4°C
Влажность 75%
Давление 1016 hPa
Видимость 10 км и более
Нет облачности ниже 1500 м, и нет кучево-дождевой облачности

METAR: OICS 150100Z 00000KT CAVOK 04/00 Q1016 A3001

Время: 06:33 (02:03 UTC)


TAF: отсутствует

Метеонаблюдения и прогнозы для более 4000 аэропортов (сводки METAR и TAF).

Имеющиеся станции представлены на карте желтыми и красными точками.

Чтобы увидеть название станции, наведите на нее мышь.

Затем щелкните, чтобы увидеть метеонаблюдения и метеопрогнозы.

Управление картой: чтобы увеличить масштаб, щелкните зеленые кнопки с черным крестиком; чтобы уменьшить масштаб, щелкните зеленую кнопку с тире; для просмотра соседних карт щелкайте зеленые стрелки.


METAR-TAF: